カタログに戻る

THOR ABLESTAR DEB

運用中LEO
NORAD 178·DEBRIS·🇺🇸 United States

打ち上げ Jun 29, 1961 から Cape Canaveral Space Force Station

Loading…

次のパス (今後24時間)

TLE

最新Source: Space-Track

元期: Sep 14, 2026, 03:09 UTC

1 00178U 61015BC  26257.13194346  .00000012  00000-0  66222-4 0  9997
2 00178  66.8649 143.2169 0085277 290.7835  68.4125 13.93079410309630

AllMySatでTHOR ABLESTAR DEBをリアルタイム追跡

Download on the App Store